Date String (YYYY-MM-DD hh:mm:ss) UTC,Instrument flags,Ambient pressure (hPa),Sample flow (lpm),Bypass flow (lpm),Sample temperature (°C),Ambient temperature (°C),ASC tube jacket temperature (°C),LED temperature (°C),Box temperature (°C),Sample RH (%),Span deviation,Mass concentration (μg/m³),Mass concentration (μg/m³),Mass concentration (μg/m³)
DateTimeUTC,F1_M11,P_M11,Q1_M11,Q2_M11,T1_M11,T2_M11,T3_M11,T4_M11,T5_M11,U1_M11,ZSPAN_M11,X2_M11,X0_M11,X1_M11
2021-12-31 09:00:00,,0808.0,5.00,0.00,22.4,22.6,00.0,31.3,24.2,12.3,0000.0,0000.25,0000.62,0000.15
2021-12-31 09:01:00,,0808.0,4.99,0.00,22.4,22.4,00.0,31.3,24.1,12.3,0000.0,0000.25,0000.61,0000.15
2021-12-31 09:02:00,,0808.0,5.01,0.00,22.4,22.2,00.0,31.3,24.1,12.3,0000.0,0000.25,0000.61,0000.15
2021-12-31 09:03:00,,0808.0,5.00,0.00,22.3,22.1,00.0,31.3,24.0,12.4,0000.0,0000.26,0000.65,0000.15
2021-12-31 09:04:00,,0808.0,5.00,0.00,22.3,21.9,00.0,31.3,23.9,12.4,0000.0,0000.28,0000.80,0000.15
2021-12-31 09:05:00,,0808.0,5.00,0.00,22.3,21.8,00.0,31.3,23.9,12.4,0000.0,0000.30,0000.84,0000.15
2021-12-31 09:06:00,,0808.0,5.00,0.00,22.2,21.7,00.0,31.3,23.9,12.4,0000.0,0000.32,0000.86,0000.17
2021-12-31 09:07:00,,0808.1,5.00,0.00,22.2,21.6,00.0,31.3,23.8,12.4,0000.0,0000.32,0000.85,0000.17
2021-12-31 09:08:00,,0808.0,5.01,0.00,22.2,21.5,00.0,31.3,23.8,12.4,0000.0,0000.30,0000.73,0000.18
2021-12-31 09:09:00,,0807.9,4.99,0.00,22.1,21.4,00.0,31.3,23.7,12.4,0000.0,0000.30,0000.70,0000.18
2021-12-31 09:10:00,,0807.9,5.00,0.00,22.1,21.3,00.0,31.3,23.6,12.4,0000.0,0000.31,0000.73,0000.19
2021-12-31 09:11:00,,0808.0,4.99,0.00,22.0,21.2,00.0,31.2,23.5,12.5,0000.0,0000.30,0000.65,0000.19
2021-12-31 09:12:00,,0808.0,5.01,0.00,22.0,21.2,00.0,31.2,23.5,12.6,0000.0,0000.31,0000.65,0000.19
2021-12-31 09:13:00,,0808.1,4.99,0.00,22.0,21.1,00.0,31.2,23.5,12.6,0000.0,0000.32,0000.66,0000.20
2021-12-31 09:14:00,,0808.1,4.99,0.00,21.9,21.1,00.0,31.2,23.4,12.6,0000.0,0000.31,0000.62,0000.21
2021-12-31 09:15:00,,0808.0,5.01,0.00,21.9,21.1,00.0,31.1,23.5,12.7,0000.0,0000.30,0000.46,0000.21
2021-12-31 09:16:00,,0808.0,4.99,0.00,22.0,21.8,00.0,31.2,23.7,12.7,0000.0,0000.29,0000.46,0000.20
2021-12-31 09:17:00,,0808.1,5.00,0.00,22.1,22.6,00.0,31.2,24.0,12.6,0000.0,0000.27,0000.44,0000.19
2021-12-31 09:18:00,,0808.1,5.00,0.00,22.2,23.0,00.0,31.2,24.2,12.5,0000.0,0000.26,0000.45,0000.18
2021-12-31 09:19:00,,0808.0,5.02,0.00,22.3,22.7,00.0,31.2,24.1,12.5,0000.0,0000.27,0000.57,0000.18
2021-12-31 09:20:00,,0808.1,5.00,0.00,22.3,22.4,00.0,31.2,24.0,12.5,0000.0,0000.26,0000.55,0000.18
2021-12-31 09:21:00,,0808.1,5.00,0.00,22.2,22.2,00.0,31.2,24.0,12.5,0000.0,0000.24,0000.51,0000.17
2021-12-31 09:22:00,,0808.1,5.01,0.00,22.2,21.9,00.0,31.2,23.9,12.5,0000.0,0000.24,0000.51,0000.18
2021-12-31 09:23:00,,0808.0,5.00,0.00,22.2,21.8,00.0,31.2,23.8,12.6,0000.0,0000.24,0000.51,0000.18
2021-12-31 09:24:00,,0808.0,5.00,0.00,22.1,21.6,00.0,31.2,23.7,12.6,0000.0,0000.24,0000.51,0000.17
2021-12-31 09:25:00,,0808.0,5.01,0.00,22.1,21.5,00.0,31.2,23.7,12.6,0000.0,0000.27,0000.58,0000.17
2021-12-31 09:26:00,,0808.0,4.98,0.00,22.0,21.4,00.0,31.2,23.6,12.6,0000.0,0000.29,0000.69,0000.18
2021-12-31 09:27:00,,0808.0,4.99,0.00,22.0,21.3,00.0,31.2,23.6,12.7,0000.0,0000.28,0000.67,0000.18
2021-12-31 09:28:00,,0808.0,5.02,0.00,21.9,21.2,00.0,31.2,23.5,12.7,0000.0,0000.28,0000.66,0000.19
2021-12-31 09:29:00,,0808.0,5.00,0.00,21.9,21.1,00.0,31.1,23.4,12.6,0000.0,0000.28,0000.64,0000.20
2021-12-31 09:30:00,,0807.9,5.00,0.00,21.8,21.1,00.0,31.1,23.4,12.7,0000.0,0000.28,0000.96,0000.20
2021-12-31 09:31:00,,0807.9,5.00,0.00,21.8,21.0,00.0,31.1,23.3,12.7,0000.0,0000.29,0001.87,0000.20
2021-12-31 09:32:00,,0807.9,4.99,0.00,21.7,21.0,00.0,31.0,23.3,12.7,0000.0,0000.30,0001.89,0000.21
2021-12-31 09:33:00,,0808.0,5.01,0.00,21.7,20.9,00.0,31.0,23.2,12.8,0000.0,0000.29,0001.88,0000.21
2021-12-31 09:34:00,,0807.9,5.00,0.00,21.6,20.9,00.0,31.0,23.2,12.8,0000.0,0000.28,0001.85,0000.20
2021-12-31 09:35:00,,0808.0,5.00,0.00,21.6,20.9,00.0,30.9,23.2,12.8,0000.0,0000.27,0001.82,0000.20
2021-12-31 09:36:00,,0808.0,4.99,0.00,21.7,21.4,00.0,30.9,23.3,12.8,0000.0,0000.25,0001.78,0000.20
2021-12-31 09:37:00,,0808.0,5.01,0.00,21.8,22.3,00.0,31.0,23.7,12.7,0000.0,0000.22,0001.64,0000.19
2021-12-31 09:38:00,,0808.1,5.00,0.00,22.0,22.9,00.0,31.0,24.0,12.6,0000.0,0000.22,0001.65,0000.18
2021-12-31 09:39:00,,0808.1,5.00,0.00,22.1,22.6,00.0,31.0,24.0,12.6,0000.0,0000.22,0001.65,0000.18
2021-12-31 09:40:00,,0808.1,5.01,0.00,22.0,22.3,00.0,31.0,23.9,12.6,0000.0,0000.23,0001.72,0000.18
2021-12-31 09:41:00,,0808.1,5.00,0.00,22.0,22.1,00.0,31.0,23.7,12.6,0000.0,0000.23,0001.15,0000.17
2021-12-31 09:42:00,,0808.1,5.01,0.00,22.0,21.8,00.0,31.0,23.6,12.6,0000.0,0000.23,0000.37,0000.17
2021-12-31 09:43:00,,0808.1,5.00,0.00,21.9,21.6,00.0,31.0,23.5,12.6,0000.0,0000.24,0000.41,0000.17
2021-12-31 09:44:00,,0808.1,5.00,0.00,21.9,21.4,00.0,31.0,23.4,12.5,0000.0,0000.25,0000.44,0000.16
2021-12-31 09:45:00,,0808.1,5.01,0.00,21.8,21.3,00.0,31.0,23.4,12.5,0000.0,0000.25,0000.45,0000.16
2021-12-31 09:46:00,,0808.1,5.01,0.00,21.8,21.2,00.0,31.0,23.3,12.5,0000.0,0000.25,0000.45,0000.16
2021-12-31 09:47:00,,0808.1,4.99,0.00,21.7,21.0,00.0,30.9,23.3,12.5,0000.0,0000.26,0000.46,0000.17
2021-12-31 09:48:00,,0808.1,5.00,0.00,21.7,21.0,00.0,30.9,23.2,12.5,0000.0,0000.26,0000.54,0000.17
2021-12-31 09:49:00,,0808.1,5.00,0.00,21.6,20.9,00.0,30.9,23.2,12.5,0000.0,0000.26,0000.53,0000.17
2021-12-31 09:50:00,,0808.1,5.00,0.00,21.6,20.8,00.0,30.9,23.1,12.5,0000.0,0000.26,0000.52,0000.17
2021-12-31 09:51:00,,0808.1,5.00,0.00,21.5,20.8,00.0,30.8,23.1,12.4,0000.0,0000.24,0000.46,0000.17
2021-12-31 09:52:00,,0808.1,4.99,0.00,21.5,20.7,00.0,30.8,23.0,12.5,0000.0,0000.24,0000.45,0000.17
2021-12-31 09:53:00,,0808.1,5.00,0.00,21.4,20.6,00.0,30.8,23.0,12.6,0000.0,0000.23,0000.46,0000.17
2021-12-31 09:54:00,,0808.1,5.01,0.00,21.4,20.7,00.0,30.7,23.0,12.6,0000.0,0000.22,0000.40,0000.17
2021-12-31 09:55:00,,0808.1,5.00,0.00,21.5,21.5,00.0,30.8,23.2,12.5,0000.0,0000.22,0000.41,0000.18
2021-12-31 09:56:00,,0808.1,5.00,0.00,21.7,22.5,00.0,30.8,23.6,12.4,0000.0,0000.24,0000.45,0000.18
2021-12-31 09:57:00,,0808.1,5.00,0.00,21.8,22.8,00.0,30.8,23.8,12.3,0000.0,0000.27,0000.53,0000.18
2021-12-31 09:58:00,,0808.0,5.01,0.00,21.8,22.3,00.0,30.8,23.7,12.3,0000.0,0000.28,0000.55,0000.18
2021-12-31 09:59:00,,0808.0,5.00,0.00,21.8,22.0,00.0,30.8,23.5,12.1,0000.0,0000.27,0000.46,0000.18
